Youngstown, OH

9:42 AM EDT on October 17, 2017 (GMT -0400)
Youngstown-Warren Regional

Weather History for KYNG - July, 2013

Change the Weather History Date:

Sunday, July 28, 2013

  Actual Average Record
Temperature  
Mean Temperature 64 °F 70 °F  
Max Temperature 71 °F 81 °F 100 °F (1941)
Min Temperature 57 °F 60 °F 49 °F (1985)
Degree Days  
Heating Degree Days 1 0  
Month to date heating degree days 9 8  
Since 1 June heating degree days 65 77  
Since 1 July heating degree days 9 8  
Cooling Degree Days 0 6  
Month to date cooling degree days 220 168  
Year to date cooling degree days 426 317  
Since 1 June cooling degree days 338 278  
Growing Degree Days 13 (Base 50)    
Moisture  
Dew Point 54 °F    
Average Humidity 74    
Maximum Humidity 100    
Minimum Humidity 47    
Precipitation  
Precipitation 0.00 in 0.14 in 1.84 in (1964)
Month to date precipitation 7.45 3.93  
Year to date precipitation 24.59 22.60  
Snow  
Snow 0.00 in 0.00 in - ()
Month to date snowfall 0.0 0.0  
Since 1 June snowfall T 0.0  
Since 1 July snowfall 0.0 0.0  
Snow Depth 0.00 in    
Sea Level Pressure  
Sea Level Pressure 29.93 in    
Wind  
Wind Speed 7 mph (WSW)    
Max Wind Speed 18 mph    
Max Gust Speed 23 mph    
Visibility 9 miles    
Events Fog    
T = Trace of Precipitation, MM = Missing Value Source: NWS Daily Summary

Daily Weather History Graph

Daily Weather History Graph

Search for Another Location

Airport or City:

Trip Planner

Search our weather history database for the weather conditions in past years. The results will help you decide how hot, cold, wet, or windy it might be!

Date:

Astronomy

Jul. 28, 2013 Rise Set
Actual Time 6:14 AM EDT 8:43 PM EDT
Civil Twilight 5:42 AM EDT 9:14 PM EDT
Nautical Twilight 5:03 AM EDT 9:53 PM EDT
Astronomical Twilight 4:19 AM EDT 10:37 PM EDT
Moon 11:59 PM EDT (7/28) 1:00 PM EDT (7/28)
Length of Visible Light 15h 31m
Length of Day
14h 29m
Waning Gibbous, 61% of the Moon is Illuminated
Jul 28
Waning Gibbous
Jul 29
Last Quarter
Aug 6
New
Aug 14
First Quarter
Aug 20
Full

Hourly Weather History & Observations

Time (EDT) Temp. Dew Point Humidity Pressure Visibility Wind Dir Wind Speed Gust Speed Precip Events Conditions
12:51 AM 62.1 °F 59.0 °F 90% 29.86 in 10.0 mi South 4.6 mph - N/A   Mostly Cloudy
1:14 AM 62.6 °F 59.0 °F 88% 29.87 in 10.0 mi South 3.5 mph - N/A   Mostly Cloudy
1:39 AM 60.8 °F 59.0 °F 94% 29.86 in 9.0 mi SSW 4.6 mph - N/A   Scattered Clouds
1:51 AM 61.0 °F 59.0 °F 93% 29.84 in 8.0 mi Calm Calm - N/A   Partly Cloudy
2:51 AM 59.0 °F 57.9 °F 96% 29.87 in 4.0 mi WSW 4.6 mph - N/A   Scattered Clouds
3:51 AM 61.0 °F 59.0 °F 93% 29.87 in 7.0 mi WNW 8.1 mph - N/A   Scattered Clouds
4:39 AM 59.0 °F 57.2 °F 94% 29.89 in 6.0 mi Calm Calm - N/A Fog Shallow Fog
4:51 AM 59.0 °F 57.9 °F 96% 29.88 in 6.0 mi Calm Calm - N/A Fog Shallow Fog
5:51 AM 57.9 °F 57.0 °F 97% 29.89 in 6.0 mi WSW 3.5 mph - N/A Fog Shallow Fog
6:51 AM 57.9 °F 57.0 °F 97% 29.91 in 2.5 mi WSW 3.5 mph - N/A Fog Shallow Fog
7:35 AM 59.0 °F 59.0 °F 100% 29.93 in 4.0 mi West 5.8 mph - N/A   Mostly Cloudy
7:51 AM 59.0 °F 57.9 °F 96% 29.93 in 10.0 mi West 5.8 mph - N/A   Mostly Cloudy
8:51 AM 61.0 °F 55.9 °F 83% 29.94 in 10.0 mi West 5.8 mph - N/A   Mostly Cloudy
9:51 AM 64.0 °F 53.1 °F 67% 29.94 in 10.0 mi WSW 8.1 mph - N/A   Scattered Clouds
10:51 AM 66.0 °F 48.9 °F 54% 29.94 in 10.0 mi West 11.5 mph - N/A   Scattered Clouds
11:51 AM 66.9 °F 50.0 °F 54% 29.94 in 10.0 mi WSW 12.7 mph - N/A   Mostly Cloudy
12:51 PM 66.0 °F 48.9 °F 54% 29.95 in 10.0 mi WSW 12.7 mph - N/A   Scattered Clouds
1:51 PM 68.0 °F 48.9 °F 50% 29.95 in 10.0 mi WSW 12.7 mph 20.7 mph N/A   Mostly Cloudy
2:51 PM 69.1 °F 48.0 °F 47% 29.95 in 10.0 mi WSW 11.5 mph 23.0 mph N/A   Mostly Cloudy
3:51 PM 66.9 °F 51.1 °F 57% 29.95 in 10.0 mi WSW 10.4 mph - N/A   Overcast
4:51 PM 66.9 °F 52.0 °F 59% 29.97 in 10.0 mi SW 10.4 mph - N/A   Mostly Cloudy
5:51 PM 64.9 °F 52.0 °F 63% 29.97 in 10.0 mi WSW 9.2 mph - N/A   Mostly Cloudy
6:51 PM 66.9 °F 51.1 °F 57% 29.97 in 10.0 mi WSW 9.2 mph - N/A   Scattered Clouds
7:51 PM 64.9 °F 51.1 °F 61% 29.99 in 10.0 mi WSW 6.9 mph - N/A   Scattered Clouds
8:51 PM 61.0 °F 50.0 °F 67% 30.00 in 10.0 mi SW 3.5 mph - N/A   Scattered Clouds
9:51 PM 59.0 °F 50.0 °F 72% 30.02 in 10.0 mi SSW 3.5 mph - N/A   Mostly Cloudy
10:51 PM 60.1 °F 52.0 °F 75% 30.02 in 10.0 mi SW 3.5 mph - N/A   Mostly Cloudy
11:51 PM 59.0 °F 52.0 °F 78% 30.03 in 10.0 mi WSW 3.5 mph - N/A   Mostly Cloudy